This is the latest recevied weather packets stored in our database for station/object AJ7DN. If no packets are shown the sender has not sent any weather packets the latest 10 day(s).
| Time | Temp. | Humidity | Pressure | Rain* | Wind** | Luminosity | Snow |
|---|---|---|---|---|---|---|---|
| 1777910378 | 13.33° C | 85% | 1018.1 hPa | 0 mm | - | 62 W/m² | - |
| 1777910075 | 13.33° C | 85% | 1018.2 hPa | 0 mm | - | 65 W/m² | - |
| 1777909773 | 13.33° C | 85% | 1018.1 hPa | 0 mm | - | 53 W/m² | - |
| 1777909469 | 13.33° C | 85% | 1018.2 hPa | 0 mm | - | 47 W/m² | - |
| 1777909167 | 13.33° C | 85% | 1018.2 hPa | 0 mm | - | 46 W/m² | - |
| 1777908865 | 13.33° C | 86% | 1018 hPa | 0 mm | - | 46 W/m² | - |
| 1777908561 | 13.33° C | 86% | 1018.2 hPa | 0 mm | - | 44 W/m² | - |
| 1777908258 | 13.33° C | 85% | 1017.8 hPa | 0 mm | - | 46 W/m² | - |
| 1777907955 | 13.33° C | 86% | 1018.1 hPa | 0 mm | - | 47 W/m² | - |
| 1777907650 | 13.33° C | 86% | 1017.9 hPa | 0 mm | - | 40 W/m² | - |
| 1777907346 | 13.33° C | 86% | 1017.8 hPa | 0 mm | - | 41 W/m² | - |
| 1777907042 | 12.78° C | 86% | 1017.9 hPa | 0 mm | - | 46 W/m² | - |
| 1777906740 | 12.78° C | 87% | 1017.7 hPa | 0 mm | - | 49 W/m² | - |
| 1777906436 | 12.78° C | 87% | 1017.8 hPa | 0 mm | - | 51 W/m² | - |
| 1777906133 | 12.78° C | 88% | 1017.8 hPa | 0 mm | - | 42 W/m² | - |
| 1777905830 | 12.78° C | 88% | 1017.6 hPa | 0 mm | - | 43 W/m² | - |
| 1777905527 | 12.78° C | 88% | 1017.6 hPa | 0 mm | - | 39 W/m² | - |
| 1777905223 | 12.78° C | 89% | 1017.5 hPa | 0 mm | - | 34 W/m² | - |
| 1777904921 | 12.78° C | 88% | 1017.3 hPa | 0 mm | - | 28 W/m² | - |
| 1777904618 | 12.22° C | 89% | 1017.5 hPa | 0 mm | - | 28 W/m² | - |
| 1777904315 | 12.22° C | 89% | 1017.4 hPa | 0 mm | - | 29 W/m² | - |
| 1777904013 | 12.22° C | 89% | 1017.2 hPa | 0 mm | - | 29 W/m² | - |
| 1777903709 | 12.22° C | 90% | 1017.1 hPa | 0 mm | - | 30 W/m² | - |
| 1777903405 | 12.22° C | 90% | 1017.1 hPa | 0 mm | - | 27 W/m² | - |
| 1777903102 | 12.22° C | 90% | 1017 hPa | 0 mm | - | 23 W/m² | - |
* Rain latest hour (hover to see other rain measurements)
** Current wind speed in m/s (hover to see current wind gust speed)